Darstellungsparameter: Aktuell verwendete Einstellungen:
Skalierung der Graphiken ... ?
xyx+y,   Skalierungsfaktor:      Skalierung: Modus: x, Faktor: 1
Darstellungszeitraum ... ?
Vom - - bis: - -   Zeitraum: 15.05.2020 - 15.05.2020
Min/Max/Avg-Anzeige ... ?
Zeige MMA aktuell
Zeige MMA Monat
Zeige MMA alles
Zeige --A aktuell
Zeige --A Monat
Zeige --A alles
Keine MMA-Anzeige
MMA:
Keine MMA-Graphiken
MMA-Basis: 15.05.2020 - 15.05.2020
Quicknavigation für Darstellung... ?
Tage:      1T, 2T, 3T, 5T -1T -2T -3T -5T +1T +2T +3T +5T
Wochen: 1W, 2W, 3W -1W -2W -3W +1W +2W +3W
Monate: 1M, 3M, 6M -1M -3M -6M +1M +3M +6M
Jahre:    1J, 3J, 5J, 10J -1J -3J -5J -10J +1J +3J +5J +10J
Nutze für die Darstellung ... ?
Originaldaten oder Mittelwerte auf ...
Stundenbasis Tagesbasis Wochenbasis
Monatsbasis Jahresbasis      Datenbasis: Original-Daten
Darstellen als:
Statistik (Auto) Statistik J:M      Darstellung:
Zur Graphik,    zurück zur Übersicht aller Sensoren.
 
Tabellarische Datenbersicht: ?
 
Sensor: Nr:Datum:Temp:Feuchte:Taupunkt:
Aussen-T/F 1 15-05-2020 00:00:00 6.8 C 72 % 2.12 C
2 15-05-2020 00:05:00 6.8 C 72 % 2.12 C
3 15-05-2020 00:10:00 6.8 C 72 % 2.12 C
4 15-05-2020 00:15:00 6.8 C 72 % 2.12 C
5 15-05-2020 00:20:00 6.7 C 73 % 2.21 C
6 15-05-2020 00:25:00 6.6 C 74 % 2.31 C
7 15-05-2020 00:30:00 6.3 C 74 % 2.02 C
8 15-05-2020 00:35:00 6.1 C 75 % 2.01 C
9 15-05-2020 00:40:00 5.9 C 76 % 2 C
10 15-05-2020 00:45:00 5.8 C 76 % 1.91 C
11 15-05-2020 00:50:00 5.7 C 77 % 1.99 C
12 15-05-2020 00:55:00 5.6 C 77 % 1.89 C
13 15-05-2020 01:00:00 5.6 C 77 % 1.89 C
14 15-05-2020 01:05:00 5.6 C 77 % 1.89 C
15 15-05-2020 01:10:00 5.6 C 78 % 2.07 C
16 15-05-2020 01:15:00 5.5 C 78 % 1.98 C
17 15-05-2020 01:20:00 5.5 C 77 % 1.8 C
18 15-05-2020 01:25:00 5.4 C 78 % 1.88 C
19 15-05-2020 01:30:00 5.4 C 78 % 1.88 C
20 15-05-2020 01:35:00 5.4 C 78 % 1.88 C
21 15-05-2020 01:40:00 5.4 C 78 % 1.88 C
22 15-05-2020 01:45:00 5.4 C 78 % 1.88 C
23 15-05-2020 01:50:00 5.3 C 77 % 1.6 C
24 15-05-2020 01:55:00 5.3 C 77 % 1.6 C
25 15-05-2020 02:00:00 5.3 C 78 % 1.78 C
Sensor: Nr:Datum:Temp:Feuchte:Taupunkt:
Aussen-T/F 26 15-05-2020 02:05:00 5.3 C 77 % 1.6 C
27 15-05-2020 02:10:00 5.3 C 77 % 1.6 C
28 15-05-2020 02:15:00 5.2 C 77 % 1.51 C
29 15-05-2020 02:20:00 5.2 C 77 % 1.51 C
30 15-05-2020 02:25:00 5.1 C 77 % 1.41 C
31 15-05-2020 02:30:00 5.1 C 77 % 1.41 C
32 15-05-2020 02:35:00 5.1 C 77 % 1.41 C
33 15-05-2020 02:40:00 5.1 C 77 % 1.41 C
34 15-05-2020 02:45:00 5 C 77 % 1.31 C
35 15-05-2020 02:50:00 4.9 C 78 % 1.39 C
36 15-05-2020 02:55:00 4.9 C 78 % 1.39 C
37 15-05-2020 03:00:00 4.8 C 78 % 1.3 C
38 15-05-2020 03:05:00 4.7 C 79 % 1.38 C
39 15-05-2020 03:10:00 4.7 C 79 % 1.38 C
40 15-05-2020 03:15:00 4.5 C 79 % 1.18 C
41 15-05-2020 03:20:00 4.4 C 80 % 1.26 C
42 15-05-2020 03:25:00 4.3 C 80 % 1.16 C
43 15-05-2020 03:30:00 4.2 C 80 % 1.07 C
44 15-05-2020 03:35:00 4.1 C 81 % 1.14 C
45 15-05-2020 03:40:00 3.9 C 81 % 0.95 C
46 15-05-2020 03:45:00 3.9 C 82 % 1.12 C
47 15-05-2020 03:50:00 3.9 C 82 % 1.12 C
48 15-05-2020 03:55:00 3.8 C 82 % 1.02 C
49 15-05-2020 04:00:00 3.8 C 82 % 1.02 C
50 15-05-2020 04:05:00 3.8 C 82 % 1.02 C
Sensor: Nr:Datum:Temp:Feuchte:Taupunkt:
Aussen-T/F 51 15-05-2020 04:10:00 3.7 C 82 % 0.92 C
52 15-05-2020 04:15:00 3.7 C 83 % 1.09 C
53 15-05-2020 04:20:00 3.7 C 83 % 1.09 C
54 15-05-2020 04:25:00 3.6 C 83 % 0.99 C
55 15-05-2020 04:30:00 3.5 C 83 % 0.89 C
56 15-05-2020 04:35:00 3.4 C 83 % 0.79 C
57 15-05-2020 04:40:00 3.3 C 83 % 0.7 C
58 15-05-2020 04:45:00 3.2 C 84 % 0.76 C
59 15-05-2020 04:50:00 3.1 C 84 % 0.67 C
60 15-05-2020 04:55:00 3 C 84 % 0.57 C
61 15-05-2020 05:00:00 2.9 C 85 % 0.63 C
62 15-05-2020 05:05:00 2.8 C 85 % 0.54 C
63 15-05-2020 05:10:00 2.7 C 85 % 0.44 C
64 15-05-2020 05:15:00 2.7 C 86 % 0.6 C
65 15-05-2020 05:20:00 2.6 C 86 % 0.5 C
66 15-05-2020 05:25:00 2.5 C 87 % 0.56 C
67 15-05-2020 05:30:00 2.4 C 87 % 0.46 C
68 15-05-2020 05:35:00 2.4 C 87 % 0.46 C
69 15-05-2020 05:40:00 2.3 C 87 % 0.36 C
70 15-05-2020 05:45:00 2.3 C 88 % 0.52 C
71 15-05-2020 05:50:00 2.3 C 88 % 0.52 C
72 15-05-2020 05:55:00 2.2 C 88 % 0.42 C
73 15-05-2020 06:00:00 2.2 C 88 % 0.42 C
74 15-05-2020 06:05:00 2.1 C 89 % 0.48 C
75 15-05-2020 06:10:00 2.1 C 89 % 0.48 C
Sensor: Nr:Datum:Temp:Feuchte:Taupunkt:
Aussen-T/F 76 15-05-2020 06:15:00 2.1 C 89 % 0.48 C
77 15-05-2020 06:20:00 2.1 C 89 % 0.48 C
78 15-05-2020 06:25:00 2.1 C 89 % 0.48 C
79 15-05-2020 06:30:00 2.1 C 90 % 0.64 C
80 15-05-2020 06:35:00 2.1 C 90 % 0.64 C
81 15-05-2020 06:40:00 2.2 C 90 % 0.73 C
82 15-05-2020 06:45:00 2.2 C 90 % 0.73 C
83 15-05-2020 06:50:00 2.2 C 90 % 0.73 C
84 15-05-2020 06:55:00 2.3 C 91 % 0.99 C
85 15-05-2020 07:00:00 2.3 C 91 % 0.99 C
86 15-05-2020 07:05:00 2.5 C 91 % 1.18 C
87 15-05-2020 07:10:00 2.7 C 91 % 1.38 C
88 15-05-2020 07:15:00 2.8 C 91 % 1.48 C
89 15-05-2020 07:20:00 2.9 C 90 % 1.43 C
90 15-05-2020 07:25:00 3.1 C 90 % 1.62 C
91 15-05-2020 07:30:00 3.2 C 90 % 1.72 C
92 15-05-2020 07:35:00 3.4 C 90 % 1.92 C
93 15-05-2020 07:40:00 3.6 C 89 % 1.96 C
94 15-05-2020 07:45:00 3.7 C 89 % 2.06 C
95 15-05-2020 07:50:00 3.8 C 88 % 2 C
96 15-05-2020 07:55:00 3.9 C 88 % 2.1 C
97 15-05-2020 08:00:00 4.1 C 88 % 2.3 C
98 15-05-2020 08:05:00 4.2 C 88 % 2.39 C
99 15-05-2020 08:10:00 4.3 C 87 % 2.33 C
100 15-05-2020 08:15:00 4.4 C 87 % 2.43 C
Sensor: Nr:Datum:Temp:Feuchte:Taupunkt:
Aussen-T/F 101 15-05-2020 08:20:00 4.6 C 86 % 2.47 C
102 15-05-2020 08:25:00 4.8 C 86 % 2.66 C
103 15-05-2020 08:30:00 4.9 C 86 % 2.76 C
104 15-05-2020 08:35:00 5.1 C 86 % 2.96 C
105 15-05-2020 08:40:00 5.3 C 84 % 2.82 C
106 15-05-2020 08:45:00 5.7 C 83 % 3.04 C
107 15-05-2020 08:50:00 5.8 C 84 % 3.31 C
108 15-05-2020 08:55:00 5.9 C 83 % 3.24 C
109 15-05-2020 09:00:00 6.1 C 81 % 3.09 C
110 15-05-2020 09:05:00 6.3 C 81 % 3.29 C
111 15-05-2020 09:10:00 6.5 C 80 % 3.31 C
112 15-05-2020 09:15:00 6.7 C 80 % 3.5 C
113 15-05-2020 09:20:00 7.1 C 78 % 3.53 C
114 15-05-2020 09:25:00 7.2 C 78 % 3.63 C
115 15-05-2020 09:30:00 7.3 C 77 % 3.54 C
116 15-05-2020 09:35:00 7.7 C 74 % 3.37 C
117 15-05-2020 09:40:00 8.1 C 71 % 3.17 C
118 15-05-2020 09:45:00 8.5 C 70 % 3.35 C
119 15-05-2020 09:50:00 8.9 C 68 % 3.32 C
120 15-05-2020 09:55:00 9.2 C 67 % 3.4 C
121 15-05-2020 10:00:00 9.3 C 67 % 3.5 C
122 15-05-2020 10:05:00 9.4 C 67 % 3.59 C
123 15-05-2020 10:10:00 9.6 C 65 % 3.35 C
124 15-05-2020 10:15:00 9.9 C 64 % 3.42 C
125 15-05-2020 10:20:00 10.2 C 62 % 3.25 C
Sensor: Nr:Datum:Temp:Feuchte:Taupunkt:
Aussen-T/F 126 15-05-2020 10:25:00 10.4 C 62 % 3.44 C
127 15-05-2020 10:30:00 10.7 C 63 % 3.95 C
128 15-05-2020 10:35:00 10.9 C 61 % 3.69 C
129 15-05-2020 10:40:00 11.1 C 60 % 3.64 C
130 15-05-2020 10:45:00 11.4 C 59 % 3.68 C
131 15-05-2020 10:50:00 11.6 C 60 % 4.11 C
132 15-05-2020 10:55:00 11.7 C 59 % 3.97 C
133 15-05-2020 11:00:00 12 C 60 % 4.49 C
134 15-05-2020 11:05:00 12.2 C 57 % 3.94 C
135 15-05-2020 11:10:00 12.5 C 56 % 3.97 C
136 15-05-2020 11:15:00 12.6 C 55 % 3.81 C
137 15-05-2020 11:20:00 12.6 C 56 % 4.07 C
138 15-05-2020 11:25:00 12.8 C 53 % 3.47 C
139 15-05-2020 11:30:00 12.9 C 53 % 3.56 C
140 15-05-2020 11:35:00 13.1 C 52 % 3.48 C
141 15-05-2020 11:40:00 13.3 C 50 % 3.11 C
142 15-05-2020 11:45:00 13.4 C 49 % 2.92 C
143 15-05-2020 11:50:00 13.6 C 48 % 2.81 C
144 15-05-2020 11:55:00 13.6 C 47 % 2.51 C
145 15-05-2020 12:00:00 13.7 C 46 % 2.3 C
146 15-05-2020 12:05:00 13.8 C 47 % 2.7 C
147 15-05-2020 12:10:00 13.8 C 47 % 2.7 C
148 15-05-2020 12:15:00 13.9 C 46 % 2.49 C
149 15-05-2020 12:20:00 14 C 46 % 2.58 C
150 15-05-2020 12:25:00 14.1 C 45 % 2.36 C
Sensor: Nr:Datum:Temp:Feuchte:Taupunkt:
Aussen-T/F 151 15-05-2020 12:30:00 14.2 C 45 % 2.45 C
152 15-05-2020 12:35:00 14.3 C 44 % 2.23 C
153 15-05-2020 12:40:00 14.2 C 44 % 2.14 C
154 15-05-2020 12:45:00 14.3 C 44 % 2.23 C
155 15-05-2020 12:50:00 14.4 C 44 % 2.32 C
156 15-05-2020 12:55:00 14.5 C 42 % 1.76 C
157 15-05-2020 13:00:00 14.6 C 43 % 2.18 C
158 15-05-2020 13:05:00 14.7 C 43 % 2.27 C
159 15-05-2020 13:10:00 14.8 C 44 % 2.68 C
160 15-05-2020 13:15:00 14.8 C 44 % 2.68 C
161 15-05-2020 13:20:00 14.9 C 45 % 3.09 C
162 15-05-2020 13:25:00 14.9 C 44 % 2.77 C
163 15-05-2020 13:30:00 14.8 C 45 % 3 C
164 15-05-2020 13:35:00 14.8 C 46 % 3.31 C
165 15-05-2020 13:40:00 14.9 C 47 % 3.7 C
166 15-05-2020 13:45:00 15.1 C 44 % 2.95 C
167 15-05-2020 13:50:00 15.3 C 46 % 3.76 C
168 15-05-2020 13:55:00 15.4 C 44 % 3.22 C
169 15-05-2020 14:00:00 15.4 C 44 % 3.22 C
170 15-05-2020 14:05:00 15.5 C 44 % 3.31 C
171 15-05-2020 14:10:00 15.5 C 44 % 3.31 C
172 15-05-2020 14:15:00 15.7 C 43 % 3.17 C
173 15-05-2020 14:20:00 15.9 C 43 % 3.35 C
174 15-05-2020 14:25:00 16 C 43 % 3.44 C
175 15-05-2020 14:30:00 16.2 C 43 % 3.62 C
Sensor: Nr:Datum:Temp:Feuchte:Taupunkt:
Aussen-T/F 176 15-05-2020 14:35:00 16.2 C 42 % 3.29 C
177 15-05-2020 14:40:00 16.3 C 43 % 3.71 C
178 15-05-2020 14:45:00 16.4 C 41 % 3.13 C
179 15-05-2020 14:50:00 16.4 C 42 % 3.47 C
180 15-05-2020 14:55:00 16.6 C 43 % 3.98 C
181 15-05-2020 15:00:00 16.8 C 41 % 3.49 C
182 15-05-2020 15:05:00 16.9 C 40 % 3.23 C
183 15-05-2020 15:10:00 17.1 C 39 % 3.05 C
184 15-05-2020 15:15:00 17.3 C 39 % 3.23 C
185 15-05-2020 15:20:00 17.4 C 38 % 2.95 C
186 15-05-2020 15:25:00 17.6 C 40 % 3.86 C
187 15-05-2020 15:30:00 18 C 38 % 3.49 C
188 15-05-2020 15:35:00 18.1 C 37 % 3.2 C
189 15-05-2020 15:40:00 18.3 C 38 % 3.75 C
190 15-05-2020 15:45:00 18.4 C 36 % 3.08 C
191 15-05-2020 15:50:00 18.7 C 36 % 3.34 C
192 15-05-2020 15:55:00 18.7 C 36 % 3.34 C
193 15-05-2020 16:00:00 18.6 C 36 % 3.25 C
194 15-05-2020 16:05:00 18.5 C 37 % 3.55 C
195 15-05-2020 16:10:00 18.6 C 37 % 3.64 C
196 15-05-2020 16:15:00 18.7 C 36 % 3.34 C
197 15-05-2020 16:20:00 18.8 C 35 % 3.03 C
198 15-05-2020 16:25:00 18.7 C 35 % 2.94 C
199 15-05-2020 16:30:00 18.3 C 35 % 2.59 C
200 15-05-2020 16:35:00 18.3 C 36 % 2.99 C
Sensor: Nr:Datum:Temp:Feuchte:Taupunkt:
Aussen-T/F 201 15-05-2020 16:40:00 18.3 C 35 % 2.59 C
202 15-05-2020 16:45:00 18.4 C 36 % 3.08 C
203 15-05-2020 16:50:00 18.6 C 35 % 2.86 C
204 15-05-2020 16:55:00 18.5 C 34 % 2.36 C
205 15-05-2020 17:00:00 18.4 C 34 % 2.27 C
206 15-05-2020 17:05:00 18.4 C 34 % 2.27 C
207 15-05-2020 17:10:00 18.3 C 33 % 1.77 C
208 15-05-2020 17:15:00 18.2 C 35 % 2.5 C
209 15-05-2020 17:20:00 18.4 C 34 % 2.27 C
210 15-05-2020 17:25:00 18.8 C 33 % 2.21 C
211 15-05-2020 17:30:00 18.8 C 33 % 2.21 C
212 15-05-2020 17:35:00 18.8 C 34 % 2.62 C
213 15-05-2020 17:40:00 19 C 33 % 2.38 C
214 15-05-2020 17:45:00 18.8 C 34 % 2.62 C
215 15-05-2020 17:50:00 18.4 C 34 % 2.27 C
216 15-05-2020 17:55:00 18.3 C 33 % 1.77 C
217 15-05-2020 18:00:00 18.2 C 34 % 2.1 C
218 15-05-2020 18:05:00 18.1 C 35 % 2.42 C
219 15-05-2020 18:10:00 18.1 C 35 % 2.42 C
220 15-05-2020 18:15:00 18 C 34 % 1.92 C
221 15-05-2020 18:20:00 17.9 C 35 % 2.24 C
222 15-05-2020 18:25:00 17.9 C 35 % 2.24 C
223 15-05-2020 18:30:00 18 C 34 % 1.92 C
224 15-05-2020 18:35:00 18.1 C 33 % 1.59 C
225 15-05-2020 18:40:00 18.1 C 33 % 1.59 C
Sensor: Nr:Datum:Temp:Feuchte:Taupunkt:
Aussen-T/F 226 15-05-2020 18:45:00 18.3 C 34 % 2.19 C
227 15-05-2020 18:50:00 18.2 C 33 % 1.68 C
228 15-05-2020 18:55:00 17.8 C 34 % 1.75 C
229 15-05-2020 19:00:00 17.8 C 34 % 1.75 C
230 15-05-2020 19:05:00 17.8 C 34 % 1.75 C
231 15-05-2020 19:10:00 17.8 C 33 % 1.33 C
232 15-05-2020 19:15:00 17.8 C 34 % 1.75 C
233 15-05-2020 19:20:00 17.7 C 34 % 1.66 C
234 15-05-2020 19:25:00 17.6 C 33 % 1.16 C
235 15-05-2020 19:30:00 17.4 C 33 % 0.98 C
236 15-05-2020 19:35:00 17.2 C 34 % 1.22 C
237 15-05-2020 19:40:00 17.1 C 35 % 1.53 C
238 15-05-2020 19:45:00 16.9 C 34 % 0.96 C
239 15-05-2020 19:50:00 16.7 C 35 % 1.18 C
240 15-05-2020 19:55:00 16.5 C 35 % 1.01 C
241 15-05-2020 20:00:00 16.4 C 36 % 1.31 C
242 15-05-2020 20:05:00 16.3 C 37 % 1.6 C
243 15-05-2020 20:10:00 16.3 C 36 % 1.22 C
244 15-05-2020 20:15:00 16.2 C 38 % 1.88 C
245 15-05-2020 20:20:00 16.1 C 37 % 1.42 C
246 15-05-2020 20:25:00 15.9 C 37 % 1.25 C
247 15-05-2020 20:30:00 15.7 C 38 % 1.44 C
248 15-05-2020 20:35:00 15.5 C 38 % 1.26 C
249 15-05-2020 20:40:00 15.3 C 39 % 1.44 C
250 15-05-2020 20:45:00 15.1 C 39 % 1.26 C
Sensor: Nr:Datum:Temp:Feuchte:Taupunkt:
Aussen-T/F 251 15-05-2020 20:50:00 14.9 C 44 % 2.77 C
252 15-05-2020 20:55:00 14.7 C 44 % 2.59 C
253 15-05-2020 21:00:00 14.3 C 47 % 3.15 C
254 15-05-2020 21:05:00 13.8 C 47 % 2.7 C
255 15-05-2020 21:10:00 13.3 C 48 % 2.54 C
256 15-05-2020 21:15:00 13 C 50 % 2.83 C
257 15-05-2020 21:20:00 12.6 C 51 % 2.74 C
258 15-05-2020 21:25:00 12.1 C 53 % 2.82 C
259 15-05-2020 21:30:00 11.7 C 54 % 2.71 C
260 15-05-2020 21:35:00 11.3 C 54 % 2.34 C
261 15-05-2020 21:40:00 11 C 55 % 2.32 C
262 15-05-2020 21:45:00 10.8 C 57 % 2.63 C
263 15-05-2020 21:50:00 10.6 C 57 % 2.45 C
264 15-05-2020 21:55:00 10.9 C 55 % 2.23 C
265 15-05-2020 22:00:00 11.3 C 57 % 3.1 C
266 15-05-2020 22:05:00 11.2 C 57 % 3.01 C
267 15-05-2020 22:10:00 10.9 C 58 % 2.97 C
268 15-05-2020 22:15:00 10.7 C 59 % 3.03 C
269 15-05-2020 22:20:00 10.3 C 60 % 2.89 C
270 15-05-2020 22:25:00 10.1 C 62 % 3.16 C
271 15-05-2020 22:30:00 9.8 C 63 % 3.1 C
272 15-05-2020 22:35:00 9.7 C 64 % 3.23 C
273 15-05-2020 22:40:00 9.5 C 65 % 3.26 C
274 15-05-2020 22:45:00 9.3 C 65 % 3.07 C
275 15-05-2020 22:50:00 9.3 C 66 % 3.28 C
Sensor: Nr:Datum:Temp:Feuchte:Taupunkt:
Aussen-T/F 276 15-05-2020 22:55:00 9.2 C 66 % 3.19 C
277 15-05-2020 23:00:00 9.1 C 67 % 3.31 C
278 15-05-2020 23:05:00 9 C 67 % 3.21 C
279 15-05-2020 23:10:00 8.9 C 67 % 3.12 C
280 15-05-2020 23:15:00 8.9 C 67 % 3.12 C
281 15-05-2020 23:20:00 8.9 C 67 % 3.12 C
282 15-05-2020 23:25:00 9.1 C 67 % 3.31 C
283 15-05-2020 23:30:00 9.2 C 67 % 3.4 C
284 15-05-2020 23:35:00 9.1 C 66 % 3.09 C
285 15-05-2020 23:40:00 8.9 C 67 % 3.12 C
286 15-05-2020 23:45:00 8.8 C 67 % 3.02 C
287 15-05-2020 23:50:00 8.6 C 68 % 3.04 C
288 15-05-2020 23:55:00 8.4 C 68 % 2.85 C

Legende:
   Min
   Max


Maximal/Minimal-Werte vom 15.05.2020 - 15.05.2020

Sensor Min Max Avg
Temp
(Aussen-T/F)
2.1 °C
15-05-2020  06:05:00
19 °C
15-05-2020  17:40:00
10.43 °C
Feuchte
(Aussen-T/F)
33 %
15-05-2020  17:10:00
91 %
15-05-2020  06:55:00
60.94 %
Taupunkt
(Aussen-T/F)
0.36 C
15-05-2020  05:40:00
4.49 C
15-05-2020  11:00:00
2.27 C

Die Daten stammen von einer Davis Vantage Pro 2 Wetter-Station und werden unter Linux mit der Software wview2wettercgi und aufbereitet. Alle Angaben erfolgen ohne Gewähr für ihre Vollständigkeit oder Richtigkeit.
Kontakt: Rainer Krienke krienke@uni-koblenz.de . Meine Webseiten an der Uni Koblenz oder privat.
Version: $Revision: 0.78 $